Stündliche Wetter Holmistyy

Heute, 25 Juni, Freitag

Zeit Temperatur Niederschläge Wind Luftdruck Luftfeuchtigkeit
00:00 +19°C° 0.2 mm 1 m/S 736 mmHg 88%
01:00 +19°C° 0.2 mm 1 m/S 736 mmHg 94%
02:00 +18°C° 0 mm 1 m/S 736 mmHg 95%
03:00 +18°C° 0 mm 1 m/S 736 mmHg 95%
04:00 +18°C° 0 mm 1 m/S 736 mmHg 96%
05:00 +19°C° 0 mm 1 m/S 736 mmHg 93%
06:00 +19°C° 0 mm 1 m/S 736 mmHg 90%
07:00 +20°C° 0 mm 1 m/S 736 mmHg 87%
08:00 +22°C° 0 mm 1 m/S 736 mmHg 77%
09:00 +24°C° 0 mm 1 m/S 736 mmHg 68%
10:00 +26°C° 0 mm 1 m/S 736 mmHg 58%
11:00 +26°C° 0.1 mm 1 m/S 736 mmHg 57%
12:00 +26°C° 0.1 mm 1 m/S 736 mmHg 56%
13:00 +27°C° 0.1 mm 1 m/S 736 mmHg 55%
14:00 +27°C° 0 mm 1 m/S 736 mmHg 55%
15:00 +27°C° 0 mm 1 m/S 736 mmHg 55%
16:00 +27°C° 0 mm 1 m/S 736 mmHg 54%
17:00 +27°C° 0 mm 1 m/S 736 mmHg 58%
18:00 +26°C° 0 mm 1 m/S 736 mmHg 63%
19:00 +26°C° 0 mm 1 m/S 735 mmHg 67%
20:00 +24°C° 0.3 mm 1 m/S 735 mmHg 74%
21:00 +22°C° 0.3 mm 1 m/S 735 mmHg 81%
22:00 +20°C° 0.3 mm 1 m/S 735 mmHg 88%
23:00 +20°C° 0.9 mm 1 m/S 735 mmHg 91%

Morgen, 26 Juni, Samstag

Zeit Temperatur Niederschläge Wind Luftdruck Luftfeuchtigkeit
00:00 +19°C° 0.9 mm 1 m/S 735 mmHg 93%
01:00 +17°C° 0.9 mm 0 m/S 735 mmHg 96%
02:00 +19°C° 0.5 mm 1 m/S 735 mmHg 96%
03:00 +19°C° 0.5 mm 1 m/S 735 mmHg 96%
04:00 +18°C° 0.5 mm 1 m/S 735 mmHg 97%
05:00 +20°C° 0 mm 1 m/S 735 mmHg 92%
06:00 +21°C° 0 mm 1 m/S 735 mmHg 87%
07:00 +23°C° 0 mm 1 m/S 735 mmHg 82%
08:00 +24°C° 0 mm 1 m/S 734 mmHg 73%
09:00 +26°C° 0 mm 1 m/S 734 mmHg 64%
10:00 +27°C° 0 mm 2 m/S 734 mmHg 55%
11:00 +28°C° 0 mm 2 m/S 734 mmHg 56%
12:00 +28°C° 0 mm 2 m/S 734 mmHg 56%
13:00 +28°C° 0 mm 3 m/S 734 mmHg 57%
14:00 +28°C° 0.1 mm 3 m/S 734 mmHg 58%
15:00 +27°C° 0.1 mm 3 m/S 734 mmHg 60%
16:00 +27°C° 0.1 mm 3 m/S 733 mmHg 61%
17:00 +27°C° 0.1 mm 3 m/S 733 mmHg 63%
18:00 +26°C° 0.1 mm 2 m/S 733 mmHg 64%
19:00 +26°C° 0.1 mm 2 m/S 733 mmHg 66%
20:00 +24°C° 0 mm 1 m/S 733 mmHg 73%
21:00 +21°C° 0 mm 1 m/S 733 mmHg 81%
22:00 +19°C° 0 mm 1 m/S 734 mmHg 88%
23:00 +19°C° 0 mm 1 m/S 734 mmHg 90%

übermorgen, 27 Juni, Sonntag

Zeit Temperatur Niederschläge Wind Luftdruck Luftfeuchtigkeit
00:00 +18°C° 0 mm 1 m/S 734 mmHg 92%
01:00 +16°C° 0 mm 2 m/S 734 mmHg 94%
02:00 +16°C° 0 mm 2 m/S 734 mmHg 95%
03:00 +16°C° 0 mm 2 m/S 734 mmHg 96%
04:00 +16°C° 0 mm 2 m/S 735 mmHg 98%
05:00 +17°C° 0 mm 2 m/S 735 mmHg 93%
06:00 +18°C° 0 mm 2 m/S 735 mmHg 88%
07:00 +19°C° 0 mm 3 m/S 736 mmHg 83%
08:00 +20°C° 0 mm 3 m/S 736 mmHg 76%
09:00 +21°C° 0 mm 3 m/S 736 mmHg 69%
10:00 +24°C° 0 mm 3 m/S 736 mmHg 62%
11:00 +22°C° 0 mm 3 m/S 736 mmHg 62%
12:00 +22°C° 0 mm 3 m/S 736 mmHg 62%
13:00 +22°C° 0 mm 3 m/S 736 mmHg 61%
14:00 +24°C° 0 mm 3 m/S 737 mmHg 59%
15:00 +25°C° 0 mm 3 m/S 737 mmHg 56%
16:00 +25°C° 0 mm 3 m/S 737 mmHg 53%
17:00 +24°C° 0 mm 3 m/S 737 mmHg 57%
18:00 +24°C° 0 mm 3 m/S 737 mmHg 61%
19:00 +23°C° 0 mm 2 m/S 737 mmHg 64%
20:00 +20°C° 0 mm 2 m/S 738 mmHg 73%
21:00 +18°C° 0 mm 2 m/S 738 mmHg 82%
22:00 +16°C° 0 mm 1 m/S 738 mmHg 91%
23:00 +15°C° 0 mm 1 m/S 738 mmHg 92%

28 Juni, Montag

Zeit Temperatur Niederschläge Wind Luftdruck Luftfeuchtigkeit
00:00 +15°C° 0 mm 1 m/S 738 mmHg 94%
01:00 +14°C° 0 mm 1 m/S 739 mmHg 95%
02:00 +14°C° 0 mm 1 m/S 739 mmHg 95%
03:00 +14°C° 0 mm 1 m/S 739 mmHg 95%
04:00 +12°C° 0 mm 0 m/S 740 mmHg 95%
05:00 +15°C° 0 mm 1 m/S 740 mmHg 86%
06:00 +18°C° 0 mm 1 m/S 740 mmHg 77%
07:00 +20°C° 0 mm 1 m/S 740 mmHg 68%
08:00 +22°C° 0 mm 1 m/S 740 mmHg 62%
09:00 +23°C° 0 mm 1 m/S 740 mmHg 55%
10:00 +25°C° 0 mm 1 m/S 740 mmHg 49%
11:00 +26°C° 0 mm 1 m/S 740 mmHg 46%
12:00 +27°C° 0 mm 1 m/S 740 mmHg 43%
13:00 +28°C° 0 mm 1 m/S 740 mmHg 39%
14:00 +28°C° 0 mm 1 m/S 740 mmHg 39%
15:00 +28°C° 0 mm 1 m/S 740 mmHg 38%
16:00 +28°C° 0 mm 1 m/S 740 mmHg 37%
17:00 +27°C° 0 mm 1 m/S 740 mmHg 44%
18:00 +26°C° 0 mm 1 m/S 740 mmHg 50%
19:00 +25°C° 0 mm 2 m/S 740 mmHg 57%
20:00 +23°C° 0 mm 2 m/S 739 mmHg 62%
21:00 +20°C° 0 mm 2 m/S 739 mmHg 67%
22:00 +18°C° 0 mm 2 m/S 739 mmHg 73%
23:00 +18°C° 0 mm 2 m/S 739 mmHg 77%

29 Juni, Dienstag

Zeit Temperatur Niederschläge Wind Luftdruck Luftfeuchtigkeit
00:00 +17°C° 0 mm 2 m/S 739 mmHg 81%
01:00 +17°C° 0 mm 2 m/S 739 mmHg 86%
02:00 +17°C° 0 mm 2 m/S 739 mmHg 85%
03:00 +17°C° 0 mm 2 m/S 739 mmHg 85%
04:00 +17°C° 0 mm 2 m/S 739 mmHg 85%
05:00 +19°C° 0 mm 2 m/S 739 mmHg 77%
06:00 +20°C° 0 mm 2 m/S 739 mmHg 69%
07:00 +23°C° 0 mm 2 m/S 739 mmHg 61%
08:00 +25°C° 0 mm 3 m/S 739 mmHg 55%
09:00 +27°C° 0 mm 3 m/S 739 mmHg 49%
10:00 +29°C° 0 mm 3 m/S 739 mmHg 42%
11:00 +29°C° 0 mm 3 m/S 738 mmHg 40%
12:00 +30°C° 0 mm 3 m/S 738 mmHg 38%
13:00 +31°C° 0 mm 3 m/S 738 mmHg 36%
14:00 +33°C° 0 mm 3 m/S 738 mmHg 36%
15:00 +33°C° 0 mm 3 m/S 737 mmHg 36%
16:00 +33°C° 0 mm 3 m/S 737 mmHg 36%
17:00 +31°C° 0 mm 2 m/S 737 mmHg 42%
18:00 +30°C° 0 mm 2 m/S 737 mmHg 49%
19:00 +29°C° 0 mm 2 m/S 737 mmHg 55%
20:00 +27°C° 0 mm 2 m/S 737 mmHg 63%
21:00 +25°C° 0 mm 2 m/S 736 mmHg 70%
22:00 +23°C° 0 mm 2 m/S 736 mmHg 78%
23:00 +23°C° 0 mm 2 m/S 736 mmHg 80%

30 Juni, Mittwoch

Zeit Temperatur Niederschläge Wind Luftdruck Luftfeuchtigkeit
00:00 +21°C° 0 mm 2 m/S 736 mmHg 82%
01:00 +21°C° 0 mm 2 m/S 736 mmHg 84%
02:00 +21°C° 0 mm 2 m/S 736 mmHg 85%
03:00 +22°C° 0 mm 1 m/S 736 mmHg 86%
04:00 +22°C° 0 mm 1 m/S 736 mmHg 88%
05:00 +24°C° 0 mm 2 m/S 737 mmHg 80%
06:00 +26°C° 0 mm 2 m/S 737 mmHg 72%
07:00 +28°C° 0 mm 3 m/S 737 mmHg 64%
08:00 +29°C° 0 mm 3 m/S 737 mmHg 57%
09:00 +31°C° 0 mm 3 m/S 737 mmHg 51%
10:00 +33°C° 0 mm 3 m/S 737 mmHg 45%
11:00 +34°C° 0 mm 3 m/S 737 mmHg 41%
12:00 +35°C° 0 mm 3 m/S 736 mmHg 37%
13:00 +36°C° 0 mm 3 m/S 736 mmHg 33%
14:00 +36°C° 0 mm 3 m/S 736 mmHg 33%
15:00 +36°C° 0 mm 3 m/S 736 mmHg 33%
16:00 +36°C° 0 mm 3 m/S 736 mmHg 33%
17:00 +35°C° 0 mm 3 m/S 736 mmHg 40%
18:00 +33°C° 0 mm 3 m/S 735 mmHg 46%
19:00 +31°C° 0 mm 2 m/S 735 mmHg 52%
20:00 +29°C° 0 mm 2 m/S 735 mmHg 58%
21:00 +27°C° 0 mm 1 m/S 735 mmHg 65%
22:00 +25°C° 0 mm 1 m/S 735 mmHg 71%
23:00 +25°C° 0 mm 1 m/S 735 mmHg 73%
Mehr zeigen

Wir brauchen deine Erlaubnis

Meteoprog und unser Service Anbieter werden persönliche Daten aufbewahren, so wie Cookies, Geräte Bezeichnung oder ähnliche Technologien von deinem Gerät und Prozess, so wie Persönliche Daten Inhalte und Werbungen, genauso wie social Media und den Verkehr zu analysieren.

  • Aufbewahrung und/oder Zugang zu deiner Geräte Informationen.

    Cookies, Geräte Bezeichnung oder andere Informationen, können aufbewahrt oder Zugang zu deinem Gerät erhalten, für den Grund, der oben angegeben wird.

  • Personalisierte Werbung und Inhalte, Messungen, Einblick in das Publikum und Produkt Entwicklung.

    Werbungen und Inhalte können personalisiert werden, basierend auf ein Profil. Mehr Daten können besser personalisierte Werbungen und Inhalte hinzufügen. Werbung und Inhalte können gezeigt und gemessen werden. Einblicke über das Publikum, welche die Werbung gesehen haben und den Inhalt, können abgeleitet werden. So wie Daten können genutzt werden, um es zu verbessern oder die Benutzer Erfahrung zu verbessern das System und die Software.

Wenn du “Ich stimme zu” klickst, erlaubst du uns, die Cookies zu benutzen die Geräte Bezeichnung, den Web oder ähnliche Technologien zu benutzen. Deine Settings, können in deinem Gerät bei deinem Browser geändert werden.

Für den bestimmten Zweck, berechtigten Interessen beruhen darauf, mehr als auf den Inhalt. Du kannst mehr darüber in unseren Privaten und Cookie Politik lesen.